Time,TemperatureF,DewpointF,PressureIn,WindDirection,WindDirectionDegrees,WindSpeedMPH,WindSpeedGustMPH,Humidity,HourlyPrecipIn,Conditions,Clouds,dailyrainin,SoftwareType,DateUTC
2013-07-23 00:00:00,67.0,66.4,29.49,North,360,0.0,5.0,98,0.00,,,0.00,Weather View 32 v70,2013-07-23 04:00:00,
2013-07-23 00:01:00,67.0,66.4,29.49,North,360,0.0,5.0,98,0.00,,,0.00,Weather View 32 v70,2013-07-23 04:01:00,
2013-07-23 00:06:00,67.0,66.7,29.49,NE,45,0.0,5.0,99,0.00,,,0.00,Weather View 32 v70,2013-07-23 04:06:00,
2013-07-23 00:11:00,67.0,66.4,29.48,North,360,0.0,5.0,98,0.00,,,0.00,Weather View 32 v70,2013-07-23 04:11:00,
2013-07-23 00:16:00,67.0,66.4,29.48,North,360,0.0,5.0,98,0.00,,,0.00,Weather View 32 v70,2013-07-23 04:16:00,
2013-07-23 00:21:00,67.0,66.7,29.48,NE,45,0.0,5.0,99,0.00,,,0.00,Weather View 32 v70,2013-07-23 04:21:00,
2013-07-23 00:26:00,67.0,66.7,29.48,NE,45,0.0,4.0,99,0.00,,,0.00,Weather View 32 v70,2013-07-23 04:26:00,
2013-07-23 00:31:00,67.0,66.7,29.47,NE,45,0.0,4.0,99,0.00,,,0.00,Weather View 32 v70,2013-07-23 04:31:00,
2013-07-23 00:36:00,67.0,66.7,29.47,North,360,0.0,4.0,99,0.00,,,0.00,Weather View 32 v70,2013-07-23 04:36:00,
2013-07-23 00:41:00,67.0,66.7,29.47,North,360,0.0,4.0,99,0.00,,,0.00,Weather View 32 v70,2013-07-23 04:41:00,
2013-07-23 00:46:00,67.0,66.7,29.47,North,360,0.0,4.0,99,0.00,,,0.00,Weather View 32 v70,2013-07-23 04:46:00,
2013-07-23 00:51:00,67.0,66.7,29.47,SW,225,0.0,4.0,99,0.00,,,0.00,Weather View 32 v70,2013-07-23 04:51:00,
2013-07-23 00:56:00,67.0,66.7,29.47,North,360,0.0,4.0,99,0.00,,,0.00,Weather View 32 v70,2013-07-23 04:56:00,
2013-07-23 01:01:00,67.0,66.7,29.46,North,360,1.0,4.0,99,0.00,,,0.00,Weather View 32 v70,2013-07-23 05:01:00,
2013-07-23 01:06:00,67.0,66.7,29.46,North,360,1.0,4.0,99,0.00,,,0.00,Weather View 32 v70,2013-07-23 05:06:00,
2013-07-23 01:11:00,67.0,66.7,29.46,North,360,0.0,4.0,99,0.00,,,0.00,Weather View 32 v70,2013-07-23 05:11:00,
2013-07-23 01:16:00,67.0,66.7,29.46,North,360,0.0,4.0,99,0.00,,,0.00,Weather View 32 v70,2013-07-23 05:16:00,
2013-07-23 01:21:00,67.0,66.7,29.45,North,360,0.0,4.0,99,0.00,,,0.00,Weather View 32 v70,2013-07-23 05:21:00,
2013-07-23 01:26:00,67.0,66.7,29.45,South,180,2.0,4.0,99,0.00,,,0.00,Weather View 32 v70,2013-07-23 05:26:00,
2013-07-23 01:31:00,67.0,66.7,29.45,South,180,0.0,4.0,99,0.00,,,0.00,Weather View 32 v70,2013-07-23 05:31:00,
2013-07-23 01:36:00,67.0,66.7,29.45,South,180,0.0,4.0,99,0.00,,,0.00,Weather View 32 v70,2013-07-23 05:36:00,
2013-07-23 01:41:00,67.0,66.7,29.44,North,360,0.0,4.0,99,0.00,,,0.00,Weather View 32 v70,2013-07-23 05:41:00,
2013-07-23 01:46:00,66.0,65.7,29.44,NW,315,0.0,4.0,99,0.00,,,0.00,Weather View 32 v70,2013-07-23 05:46:00,
2013-07-23 01:51:00,66.0,65.7,29.44,NW,315,0.0,4.0,99,0.00,,,0.00,Weather View 32 v70,2013-07-23 05:51:00,
2013-07-23 01:56:00,66.0,65.7,29.44,North,360,0.0,4.0,99,0.00,,,0.00,Weather View 32 v70,2013-07-23 05:56:00,
2013-07-23 02:01:00,66.0,65.7,29.43,North,360,0.0,4.0,99,0.00,,,0.00,Weather View 32 v70,2013-07-23 06:01:00,
2013-07-23 02:06:00,66.0,65.7,29.43,ENE,67,1.0,3.0,99,0.00,,,0.00,Weather View 32 v70,2013-07-23 06:06:00,
2013-07-23 02:11:00,66.0,65.7,29.43,ENE,67,0.0,3.0,99,0.00,,,0.00,Weather View 32 v70,2013-07-23 06:11:00,
2013-07-23 02:16:00,66.0,65.7,29.43,ENE,67,0.0,3.0,99,0.00,,,0.00,Weather View 32 v70,2013-07-23 06:16:00,
2013-07-23 02:21:00,66.0,65.7,29.43,ENE,67,0.0,3.0,99,0.00,,,0.00,Weather View 32 v70,2013-07-23 06:21:00,
2013-07-23 02:26:00,66.0,65.7,29.43,East,90,0.0,3.0,99,0.00,,,0.00,Weather View 32 v70,2013-07-23 06:26:00,
2013-07-23 02:31:00,66.0,65.7,29.43,NW,315,0.0,3.0,99,0.00,,,0.00,Weather View 32 v70,2013-07-23 06:31:00,
2013-07-23 02:36:00,66.0,65.7,29.43,NW,315,0.0,3.0,99,0.00,,,0.00,Weather View 32 v70,2013-07-23 06:36:00,
2013-07-23 02:41:00,66.0,65.7,29.42,North,360,0.0,4.0,99,0.00,,,0.00,Weather View 32 v70,2013-07-23 06:41:00,
2013-07-23 02:46:00,66.0,65.7,29.42,North,360,0.0,4.0,99,0.00,,,0.00,Weather View 32 v70,2013-07-23 06:46:00,
2013-07-23 02:51:00,66.0,65.7,29.41,North,360,0.0,4.0,99,0.00,,,0.00,Weather View 32 v70,2013-07-23 06:51:00,
2013-07-23 02:56:00,66.0,65.7,29.41,North,360,0.0,4.0,99,0.00,,,0.00,Weather View 32 v70,2013-07-23 06:56:00,
2013-07-23 03:01:00,66.0,65.7,29.41,NE,45,0.0,4.0,99,0.00,,,0.00,Weather View 32 v70,2013-07-23 07:01:00,
2013-07-23 03:06:00,66.0,65.7,29.41,North,360,1.0,4.0,99,0.00,,,0.00,Weather View 32 v70,2013-07-23 07:06:00,
2013-07-23 03:11:00,66.0,65.7,29.40,North,360,1.0,5.0,99,0.00,,,0.00,Weather View 32 v70,2013-07-23 07:11:00,
2013-07-23 03:16:00,66.0,65.7,29.40,West,270,0.0,5.0,99,0.00,,,0.00,Weather View 32 v70,2013-07-23 07:16:00,
2013-07-23 03:21:00,66.0,65.7,29.39,North,360,0.0,6.0,99,0.00,,,0.00,Weather View 32 v70,2013-07-23 07:21:00,
2013-07-23 03:26:00,66.0,65.7,29.39,NE,45,1.0,6.0,99,0.00,,,0.00,Weather View 32 v70,2013-07-23 07:26:00,
2013-07-23 03:31:00,66.0,65.7,29.39,North,360,1.0,6.0,99,0.00,,,0.00,Weather View 32 v70,2013-07-23 07:31:00,
2013-07-23 03:36:00,66.0,65.7,29.39,South,180,2.0,6.0,99,0.00,,,0.00,Weather View 32 v70,2013-07-23 07:36:00,
2013-07-23 03:41:00,66.0,65.7,29.39,SW,225,0.0,6.0,99,0.00,,,0.00,Weather View 32 v70,2013-07-23 07:41:00,
2013-07-23 03:46:00,66.0,65.7,29.39,South,180,0.0,6.0,99,0.00,,,0.00,Weather View 32 v70,2013-07-23 07:46:00,
2013-07-23 03:54:00,66.0,65.7,29.38,NE,45,0.0,6.0,99,0.00,,,0.00,Weather View 32 v70,2013-07-23 07:54:00,
2013-07-23 03:59:00,66.0,65.7,29.38,SSW,202,0.0,6.0,99,0.00,,,0.00,Weather View 32 v70,2013-07-23 07:59:00,
2013-07-23 04:04:00,66.0,65.7,29.38,SW,225,0.0,6.0,99,0.00,,,0.00,Weather View 32 v70,2013-07-23 08:04:00,
2013-07-23 04:09:00,66.0,65.7,29.38,East,90,1.0,6.0,99,0.00,,,0.00,Weather View 32 v70,2013-07-23 08:09:00,
2013-07-23 04:14:00,66.0,65.7,29.37,West,270,0.0,6.0,99,0.00,,,0.00,Weather View 32 v70,2013-07-23 08:14:00,
2013-07-23 04:19:00,66.0,65.7,29.37,ENE,67,0.0,6.0,99,0.00,,,0.00,Weather View 32 v70,2013-07-23 08:19:00,
2013-07-23 04:24:00,66.0,65.7,29.37,SW,225,0.0,6.0,99,0.00,,,0.00,Weather View 32 v70,2013-07-23 08:24:00,
2013-07-23 04:29:00,66.0,65.7,29.37,SSW,202,3.0,6.0,99,0.00,,,0.00,Weather View 32 v70,2013-07-23 08:29:00,
2013-07-23 04:34:00,66.0,65.7,29.37,SW,225,1.0,5.0,99,0.00,,,0.00,Weather View 32 v70,2013-07-23 08:34:00,
2013-07-23 04:39:00,66.0,65.7,29.37,South,180,3.0,5.0,99,0.00,,,0.00,Weather View 32 v70,2013-07-23 08:39:00,
2013-07-23 04:44:00,66.0,65.7,29.37,NE,45,1.0,5.0,99,0.00,,,0.00,Weather View 32 v70,2013-07-23 08:44:00,
2013-07-23 04:49:00,66.0,65.7,29.37,SE,135,2.0,5.0,99,0.00,,,0.00,Weather View 32 v70,2013-07-23 08:49:00,
2013-07-23 04:54:00,66.0,65.7,29.36,SE,135,0.0,5.0,99,0.00,,,0.00,Weather View 32 v70,2013-07-23 08:54:00,
2013-07-23 04:59:00,66.0,65.7,29.36,South,180,0.0,5.0,99,0.00,,,0.00,Weather View 32 v70,2013-07-23 08:59:00,
2013-07-23 05:04:00,66.0,65.7,29.36,West,270,2.0,5.0,99,0.00,,,0.00,Weather View 32 v70,2013-07-23 09:04:00,
2013-07-23 05:09:00,66.0,65.7,29.36,WSW,247,2.0,5.0,99,0.00,,,0.00,Weather View 32 v70,2013-07-23 09:09:00,
2013-07-23 05:14:00,66.0,65.7,29.36,North,360,0.0,5.0,99,0.00,,,0.00,Weather View 32 v70,2013-07-23 09:14:00,
2013-07-23 05:32:00,66.0,65.7,29.35,North,360,0.0,4.0,99,0.00,,,0.00,Weather View 32 v70,2013-07-23 09:32:00,
2013-07-23 05:37:00,66.0,65.7,29.35,North,360,0.0,4.0,99,0.00,,,0.00,Weather View 32 v70,2013-07-23 09:37:00,
2013-07-23 05:45:00,66.0,65.7,29.35,SW,225,1.0,4.0,99,0.00,,,0.00,Weather View 32 v70,2013-07-23 09:45:00,
2013-07-23 05:51:00,66.0,65.7,29.34,South,180,0.0,4.0,99,0.00,,,0.00,Weather View 32 v70,2013-07-23 09:51:00,
2013-07-23 05:56:00,66.0,65.7,29.34,ENE,67,1.0,3.0,99,0.00,,,0.00,Weather View 32 v70,2013-07-23 09:56:00,
2013-07-23 13:54:00,73.0,72.7,29.15,West,270,1.0,0.0,99,0.00,,,0.00,Weather View 32 v70,2013-07-23 17:54:00,
2013-07-23 13:59:00,73.0,72.7,29.15,West,270,0.0,3.0,99,0.00,,,0.00,Weather View 32 v70,2013-07-23 17:59:00,
2013-07-23 14:04:00,74.0,73.7,29.15,West,270,0.0,3.0,99,0.00,,,0.00,Weather View 32 v70,2013-07-23 18:04:00,
2013-07-23 14:09:00,74.0,73.7,29.15,South,180,0.0,3.0,99,0.00,,,0.00,Weather View 32 v70,2013-07-23 18:09:00,
2013-07-23 14:14:00,74.0,73.7,29.15,South,180,0.0,3.0,99,0.00,,,0.00,Weather View 32 v70,2013-07-23 18:14:00,
2013-07-23 14:19:00,74.0,73.7,29.15,South,180,2.0,3.0,99,0.00,,,0.00,Weather View 32 v70,2013-07-23 18:19:00,
2013-07-23 14:24:00,74.0,73.7,29.15,South,180,1.0,6.0,99,0.00,,,0.00,Weather View 32 v70,2013-07-23 18:24:00,
2013-07-23 14:30:00,74.0,73.7,29.15,SE,135,0.0,6.0,99,0.00,,,0.00,Weather View 32 v70,2013-07-23 18:30:00,
2013-07-23 14:35:00,74.0,73.7,29.15,SE,135,1.0,6.0,99,0.00,,,0.00,Weather View 32 v70,2013-07-23 18:35:00,
2013-07-23 14:40:00,75.0,74.7,29.15,East,90,0.0,6.0,99,0.00,,,0.00,Weather View 32 v70,2013-07-23 18:40:00,
2013-07-23 14:45:00,74.0,73.7,29.14,South,180,0.0,6.0,99,0.00,,,0.00,Weather View 32 v70,2013-07-23 18:45:00,
2013-07-23 14:50:00,74.0,73.7,29.14,South,180,1.0,6.0,99,0.00,,,0.00,Weather View 32 v70,2013-07-23 18:50:00,
2013-07-23 14:55:00,74.0,73.7,29.15,South,180,0.0,6.0,99,0.00,,,0.00,Weather View 32 v70,2013-07-23 18:55:00,
2013-07-23 15:00:00,74.0,73.7,29.15,South,180,0.0,6.0,99,0.00,,,0.00,Weather View 32 v70,2013-07-23 19:00:00,
2013-07-23 15:05:00,74.0,73.7,29.14,South,180,0.0,6.0,99,0.00,,,0.00,Weather View 32 v70,2013-07-23 19:05:00,
2013-07-23 15:10:00,74.0,73.7,29.14,South,180,0.0,6.0,99,0.00,,,0.00,Weather View 32 v70,2013-07-23 19:10:00,
2013-07-23 15:15:00,74.0,73.7,29.14,South,180,0.0,6.0,99,0.00,,,0.00,Weather View 32 v70,2013-07-23 19:15:00,
2013-07-23 15:20:00,74.0,73.7,29.14,South,180,0.0,6.0,99,0.00,,,0.00,Weather View 32 v70,2013-07-23 19:20:00,
2013-07-23 17:14:00,73.0,72.7,29.13,West,270,1.0,0.0,99,0.00,,,0.00,Weather View 32 v70,2013-07-23 21:14:00,
2013-07-23 17:19:00,73.0,72.7,29.13,West,270,3.0,3.0,99,0.00,,,0.00,Weather View 32 v70,2013-07-23 21:19:00,
2013-07-23 17:24:00,73.0,72.7,29.14,South,180,0.0,3.0,99,0.00,,,0.00,Weather View 32 v70,2013-07-23 21:24:00,
2013-07-23 17:29:00,73.0,72.7,29.14,South,180,0.0,3.0,99,0.00,,,0.00,Weather View 32 v70,2013-07-23 21:29:00,
2013-07-23 17:34:00,73.0,72.7,29.13,SW,225,0.0,3.0,99,0.00,,,0.00,Weather View 32 v70,2013-07-23 21:34:00,
2013-07-23 17:39:00,73.0,72.7,29.13,SW,225,0.0,3.0,99,0.00,,,0.00,Weather View 32 v70,2013-07-23 21:39:00,
2013-07-23 17:44:00,73.0,72.7,29.13,SW,225,0.0,3.0,99,0.00,,,0.00,Weather View 32 v70,2013-07-23 21:44:00,
2013-07-23 17:49:00,72.0,71.7,29.13,SW,225,0.0,3.0,99,0.00,,,0.00,Weather View 32 v70,2013-07-23 21:49:00,
2013-07-23 17:54:00,72.0,71.7,29.13,SE,135,0.0,3.0,99,0.00,,,0.00,Weather View 32 v70,2013-07-23 21:54:00,
2013-07-23 18:00:00,72.0,71.7,29.13,SE,135,0.0,3.0,99,0.00,,,0.00,Weather View 32 v70,2013-07-23 22:00:00,
2013-07-23 18:05:00,72.0,71.7,29.13,SE,135,0.0,3.0,99,0.00,,,0.00,Weather View 32 v70,2013-07-23 22:05:00,
2013-07-23 18:10:00,72.0,71.7,29.13,SE,135,0.0,3.0,99,0.00,,,0.00,Weather View 32 v70,2013-07-23 22:10:00,
2013-07-23 18:15:00,73.0,72.7,29.13,SE,135,0.0,3.0,99,0.00,,,0.00,Weather View 32 v70,2013-07-23 22:15:00,
2013-07-23 18:20:00,74.0,73.7,29.13,SE,135,0.0,3.0,99,0.00,,,0.00,Weather View 32 v70,2013-07-23 22:20:00,
2013-07-23 18:25:00,74.0,73.4,29.14,SE,135,0.0,3.0,98,0.00,,,0.00,Weather View 32 v70,2013-07-23 22:25:00,
2013-07-23 18:30:00,75.0,73.5,29.14,SE,135,0.0,3.0,95,0.00,,,0.00,Weather View 32 v70,2013-07-23 22:30:00,
2013-07-23 18:35:00,75.0,73.5,29.13,South,180,0.0,3.0,95,0.00,,,0.00,Weather View 32 v70,2013-07-23 22:35:00,
2013-07-23 18:40:00,75.0,72.8,29.13,South,180,0.0,3.0,93,0.00,,,0.00,Weather View 32 v70,2013-07-23 22:40:00,
2013-07-23 18:46:00,75.0,73.8,29.14,South,180,0.0,3.0,96,0.00,,,0.00,Weather View 32 v70,2013-07-23 22:46:00,
2013-07-23 18:51:00,74.0,72.8,29.14,South,180,0.0,3.0,96,0.00,,,0.00,Weather View 32 v70,2013-07-23 22:51:00,
2013-07-23 18:56:00,74.0,73.4,29.14,South,180,0.0,2.0,98,0.00,,,0.00,Weather View 32 v70,2013-07-23 22:56:00,
2013-07-23 19:01:00,74.0,73.7,29.14,South,180,0.0,2.0,99,0.00,,,0.00,Weather View 32 v70,2013-07-23 23:01:00,
2013-07-23 19:07:00,73.0,72.7,29.14,South,180,0.0,2.0,99,0.00,,,0.00,Weather View 32 v70,2013-07-23 23:07:00,
2013-07-23 19:12:00,73.0,72.7,29.16,South,180,0.0,2.0,99,0.00,,,0.00,Weather View 32 v70,2013-07-23 23:12:00,
2013-07-23 19:17:00,73.0,72.7,29.16,South,180,0.0,2.0,99,0.00,,,0.00,Weather View 32 v70,2013-07-23 23:17:00,
2013-07-23 19:23:00,73.0,72.7,29.16,South,180,0.0,2.0,99,0.00,,,0.00,Weather View 32 v70,2013-07-23 23:23:00,
2013-07-23 19:28:00,72.0,71.7,29.16,South,180,0.0,2.0,99,0.00,,,0.00,Weather View 32 v70,2013-07-23 23:28:00,
2013-07-23 19:33:00,72.0,71.7,29.17,South,180,0.0,2.0,99,0.00,,,0.00,Weather View 32 v70,2013-07-23 23:33:00,
2013-07-23 19:38:00,72.0,71.7,29.17,South,180,0.0,0.0,99,0.00,,,0.00,Weather View 32 v70,2013-07-23 23:38:00,
2013-07-23 19:43:00,72.0,71.7,29.17,SW,225,0.0,0.0,99,0.00,,,0.00,Weather View 32 v70,2013-07-23 23:43:00,
2013-07-23 19:48:00,72.0,71.7,29.17,SW,225,0.0,0.0,99,0.00,,,0.00,Weather View 32 v70,2013-07-23 23:48:00,
2013-07-23 19:53:00,72.0,71.7,29.17,SW,225,0.0,0.0,99,0.00,,,0.00,Weather View 32 v70,2013-07-23 23:53:00,
2013-07-23 19:58:00,72.0,71.7,29.17,SW,225,0.0,0.0,99,0.00,,,0.00,Weather View 32 v70,2013-07-23 23:58:00,
2013-07-23 20:03:00,72.0,71.7,29.17,SW,225,0.0,0.0,99,0.00,,,0.00,Weather View 32 v70,2013-07-24 00:03:00,
2013-07-23 20:09:00,72.0,71.7,29.17,SW,225,0.0,0.0,99,0.00,,,0.00,Weather View 32 v70,2013-07-24 00:09:00,
2013-07-23 20:14:00,72.0,71.7,29.17,West,270,0.0,3.0,99,0.00,,,0.00,Weather View 32 v70,2013-07-24 00:14:00,
2013-07-23 20:19:00,71.0,70.7,29.17,West,270,0.0,3.0,99,0.00,,,0.00,Weather View 32 v70,2013-07-24 00:19:00,
2013-07-23 20:24:00,71.0,70.7,29.17,West,270,0.0,3.0,99,0.00,,,0.00,Weather View 32 v70,2013-07-24 00:24:00,
2013-07-23 20:29:00,71.0,70.7,29.17,West,270,0.0,3.0,99,0.00,,,0.00,Weather View 32 v70,2013-07-24 00:29:00,
2013-07-23 20:34:00,71.0,70.7,29.18,West,270,0.0,3.0,99,0.00,,,0.00,Weather View 32 v70,2013-07-24 00:34:00,
2013-07-23 20:39:00,71.0,70.7,29.18,West,270,0.0,3.0,99,0.00,,,0.00,Weather View 32 v70,2013-07-24 00:39:00,
2013-07-23 20:44:00,71.0,70.7,29.18,West,270,0.0,3.0,99,0.00,,,0.00,Weather View 32 v70,2013-07-24 00:44:00,
2013-07-23 20:49:00,71.0,70.7,29.18,West,270,0.0,3.0,99,0.00,,,0.00,Weather View 32 v70,2013-07-24 00:49:00,
2013-07-23 20:55:00,70.0,69.7,29.18,West,270,0.0,3.0,99,0.00,,,0.00,Weather View 32 v70,2013-07-24 00:55:00,
2013-07-23 21:00:00,70.0,69.7,29.18,West,270,0.0,3.0,99,0.00,,,0.00,Weather View 32 v70,2013-07-24 01:00:00,
2013-07-23 21:05:00,70.0,69.7,29.18,West,270,0.0,3.0,99,0.00,,,0.00,Weather View 32 v70,2013-07-24 01:05:00,
2013-07-23 21:10:00,70.0,69.7,29.18,West,270,0.0,3.0,99,0.00,,,0.00,Weather View 32 v70,2013-07-24 01:10:00,
2013-07-23 21:15:00,70.0,69.7,29.18,West,270,0.0,2.0,99,0.00,,,0.00,Weather View 32 v70,2013-07-24 01:15:00,
2013-07-23 21:20:00,70.0,69.7,29.18,West,270,0.0,2.0,99,0.00,,,0.00,Weather View 32 v70,2013-07-24 01:20:00,
2013-07-23 21:25:00,70.0,69.7,29.18,West,270,0.0,2.0,99,0.00,,,0.00,Weather View 32 v70,2013-07-24 01:25:00,
2013-07-23 21:30:00,70.0,69.7,29.18,West,270,0.0,2.0,99,0.00,,,0.00,Weather View 32 v70,2013-07-24 01:30:00,
2013-07-23 21:36:00,70.0,69.7,29.19,West,270,0.0,1.0,99,0.00,,,0.00,Weather View 32 v70,2013-07-24 01:36:00,
2013-07-23 21:41:00,70.0,69.7,29.19,West,270,0.0,1.0,99,0.00,,,0.00,Weather View 32 v70,2013-07-24 01:41:00,
2013-07-23 21:49:00,70.0,69.7,29.18,West,270,0.0,1.0,99,0.00,,,0.00,Weather View 32 v70,2013-07-24 01:49:00,
2013-07-23 21:54:00,70.0,69.7,29.19,West,270,0.0,2.0,99,0.00,,,0.00,Weather View 32 v70,2013-07-24 01:54:00,
2013-07-23 21:59:00,70.0,69.7,29.19,West,270,0.0,2.0,99,0.00,,,0.00,Weather View 32 v70,2013-07-24 01:59:00,
2013-07-23 22:04:00,70.0,69.7,29.19,West,270,0.0,2.0,99,0.00,,,0.00,Weather View 32 v70,2013-07-24 02:04:00,
2013-07-23 22:09:00,69.0,68.7,29.19,West,270,0.0,2.0,99,0.00,,,0.00,Weather View 32 v70,2013-07-24 02:09:00,
2013-07-23 22:15:00,69.0,68.7,29.18,West,270,0.0,2.0,99,0.00,,,0.00,Weather View 32 v70,2013-07-24 02:15:00,
2013-07-23 22:20:00,69.0,68.7,29.18,West,270,0.0,2.0,99,0.00,,,0.00,Weather View 32 v70,2013-07-24 02:20:00,
2013-07-23 22:25:00,69.0,68.7,29.19,West,270,0.0,2.0,99,0.00,,,0.00,Weather View 32 v70,2013-07-24 02:25:00,
2013-07-23 22:31:00,69.0,68.7,29.19,West,270,0.0,2.0,99,0.00,,,0.00,Weather View 32 v70,2013-07-24 02:31:00,
2013-07-23 22:36:00,69.0,68.7,29.19,West,270,0.0,2.0,99,0.00,,,0.00,Weather View 32 v70,2013-07-24 02:36:00,
2013-07-23 22:41:00,69.0,68.7,29.19,West,270,0.0,2.0,99,0.00,,,0.00,Weather View 32 v70,2013-07-24 02:41:00,
2013-07-23 22:46:00,70.0,69.7,29.19,West,270,2.0,4.0,99,0.00,,,0.00,Weather View 32 v70,2013-07-24 02:46:00,
2013-07-23 22:51:00,70.0,69.7,29.19,West,270,2.0,4.0,99,0.00,,,0.00,Weather View 32 v70,2013-07-24 02:51:00,
2013-07-23 22:56:00,70.0,69.7,29.19,West,270,4.0,4.0,99,0.00,,,0.00,Weather View 32 v70,2013-07-24 02:56:00,
2013-07-23 23:01:00,70.0,69.7,29.18,West,270,0.0,5.0,99,0.00,,,0.00,Weather View 32 v70,2013-07-24 03:01:00,
2013-07-23 23:06:00,70.0,69.7,29.18,West,270,0.0,5.0,99,0.00,,,0.00,Weather View 32 v70,2013-07-24 03:06:00,
2013-07-23 23:11:00,70.0,69.7,29.18,West,270,1.0,5.0,99,0.00,,,0.00,Weather View 32 v70,2013-07-24 03:11:00,
2013-07-23 23:17:00,70.0,69.7,29.18,West,270,0.0,5.0,99,0.00,,,0.00,Weather View 32 v70,2013-07-24 03:17:00,
2013-07-23 23:23:00,69.0,68.7,29.19,West,270,1.0,5.0,99,0.00,,,0.00,Weather View 32 v70,2013-07-24 03:23:00,
2013-07-23 23:28:00,69.0,68.7,29.19,West,270,2.0,5.0,99,0.00,,,0.00,Weather View 32 v70,2013-07-24 03:28:00,
2013-07-23 23:33:00,69.0,68.7,29.19,West,270,0.0,5.0,99,0.00,,,0.00,Weather View 32 v70,2013-07-24 03:33:00,
2013-07-23 23:38:00,69.0,68.7,29.19,West,270,1.0,5.0,99,0.00,,,0.00,Weather View 32 v70,2013-07-24 03:38:00,
2013-07-23 23:44:00,69.0,68.7,29.19,West,270,0.0,5.0,99,0.00,,,0.00,Weather View 32 v70,2013-07-24 03:44:00,
2013-07-23 23:49:00,69.0,68.7,29.19,West,270,2.0,5.0,99,0.00,,,0.00,Weather View 32 v70,2013-07-24 03:49:00,
2013-07-23 23:54:00,70.0,69.7,29.19,WNW,292,2.0,5.0,99,0.00,,,0.00,Weather View 32 v70,2013-07-24 03:54:00,
2013-07-23 23:59:00,69.0,68.7,29.19,WNW,292,2.0,4.0,99,0.00,,,0.00,Weather View 32 v70,2013-07-24 03:59:00,